Location: Roanoke
(37.2710°N, 79.9420°W)
Time: 14:56:23
(UTC-05:00)

Courier 1B Rocket - Pass Details

Date: 19 November 2019
Orbit: 920 x 1202 km, 28.2° (Epoch: 09 December)

Event Time Altitude Azimuth Distance (km) Brightness Sun altitude
Rises 16:37:10 0° 252° (WSW) 3,848 10.4 4.5°
Reaches altitude 10° 16:39:59 10° 245° (WSW) 2,935 10.3 4.0°
Maximum altitude 16:46:44 42° 177° (S) 1,573 6.5 2.8°
Drops below altitude 10° 16:53:52 10° 110° (ESE) 3,096 7.2 1.5°
Sets 16:56:54 0° 103° (ESE) 4,079 7.8 1.0°
